EHI
5 9 18 30 30 16 3 0 0 0 0 0 0 1 0 0 0 0 1 2 2 1 1 3 3 1 0 0 0 0 0 0 0 0 0 1 0 0 0 0 0 0 0 0 0 0 1 1 1
8 16 25 29 22 9 1 0 0 0 0 0 0 1 0 0 0 0 1 2 2 1 1 3 3 1 0 0 0 0 0 0 0 0 0 1 0 0 0 0 0 0 0 0 0 0 0 0 0
16 25 29 22 11 3 0 0 0 0 0 0 1 1 0 0 1 1 2 3 2 2 2 3 3 2 1 0 0 0 0 0 0 0 0 0 0 0 0 0 0 0 0 0 0 0 0 0 0
25 30 27 14 4 0 0 0 0 0 0 1 2 2 1 1 1 2 2 3 3 4 4 5 6 4 2 1 0 0 0 0 0 0 0 0 0 0 0 0 0 0 0 0 0 0 0 0 0
29 27 19 8 1 0 0 0 0 0 0 1 3 3 2 1 1 1 1 2 4 6 6 6 8 7 4 1 0 0 0 0 0 0 0 1 1 0 0 0 0 0 0 0 0 0 0 0 0
27 20 10 3 0 0 0 0 0 0 0 1 3 4 2 0 0 1 1 2 4 7 7 6 8 7 3 1 1 1 1 1 1 1 1 2 2 1 0 0 0 0 0 1 1 1 1 0 0
22 15 5 1 0 0 0 0 0 0 0 0 2 4 3 1 1 2 2 3 5 8 7 5 5 4 2 1 1 2 2 2 2 2 3 3 3 2 1 1 1 1 1 1 2 3 2 1 0
13 7 2 0 0 0 0 0 0 0 0 0 2 4 5 4 3 2 3 4 6 6 6 4 2 1 0 0 2 3 3 3 3 3 4 4 3 3 4 3 3 3 3 3 3 3 3 3 2
4 2 0 0 0 0 0 0 0 0 0 1 3 5 7 7 5 4 3 4 5 5 3 2 1 0 0 1 3 4 4 4 3 3 4 3 2 3 4 5 5 5 4 3 3 4 5 5 6
2 1 0 0 0 0 0 0 1 1 2 5 8 8 8 8 7 6 5 4 5 4 2 0 0 0 0 2 4 5 5 6 5 4 4 3 2 2 3 6 7 6 5 4 5 6 7 6 6
1 0 0 0 0 0 0 0 1 2 4 9 14 13 10 9 8 7 7 7 7 4 2 1 1 1 1 2 4 4 4 7 7 6 7 7 4 2 2 5 7 7 6 6 7 8 7 5 4
0 0 0 0 0 0 0 0 0 2 5 12 17 15 11 9 9 9 10 11 10 6 3 4 6 7 5 3 2 2 2 4 6 8 9 9 7 4 2 3 4 6 7 8 9 9 8 5 3
0 0 0 0 0 0 0 0 1 2 5 10 14 12 9 8 10 11 11 13 14 11 7 8 12 13 9 4 2 1 1 1 5 9 9 8 7 6 4 4 5 5 6 9 10 9 8 7 5
0 0 0 0 0 0 0 0 2 4 5 8 12 11 8 8 10 13 13 15 20 22 17 15 17 17 12 5 2 2 1 1 6 11 13 11 9 10 9 9 9 8 8 10 11 9 7 7 7
0 0 0 0 0 0 0 1 3 6 6 7 11 12 10 9 11 14 17 20 28 33 30 23 21 20 15 7 4 3 2 2 6 13 17 16 15 15 14 13 13 12 11 13 14 11 7 6 7
0 0 0 0 0 0 0 1 5 6 6 7 10 13 13 14 14 16 22 29 38 43 39 28 20 20 17 10 5 4 4 4 7 13 19 21 18 16 15 14 13 12 12 14 14 12 9 7 6
0 0 0 0 0 0 0 2 4 5 5 7 11 16 19 21 21 23 28 36 46 51 47 33 24 22 18 11 8 6 7 7 9 14 20 22 19 16 15 15 15 13 12 12 10 10 11 11 9
0 0 0 0 0 0 0 2 4 4 4 8 15 22 26 27 30 33 34 39 48 56 54 44 36 30 22 13 10 8 8 8 8 13 21 22 17 17 18 19 20 17 14 12 10 10 14 16 16
0 0 0 0 0 0 0 1 3 3 5 11 21 31 35 34 38 43 43 43 49 60 63 56 49 42 31 20 13 10 7 5 5 12 22 24 18 16 18 19 20 21 19 17 14 13 16 19 20
0 0 0 0 0 0 0 1 3 3 6 14 26 36 40 42 48 56 55 50 55 66 70 64 59 54 41 28 18 11 7 6 6 14 25 28 22 17 15 16 17 18 20 20 18 17 19 20 20
0 0 0 0 0 0 0 1 2 4 7 15 26 34 39 46 58 67 65 59 61 69 71 67 67 65 52 35 23 17 13 12 13 21 28 30 25 20 16 16 17 17 19 21 21 21 22 20 18
0 0 0 0 0 0 0 0 2 5 8 14 22 28 34 45 60 69 69 64 63 67 69 70 73 72 61 45 31 25 22 17 18 24 29 29 25 21 20 21 23 22 21 21 21 23 23 18 14
0 0 0 0 0 0 0 0 1 4 8 11 16 23 30 40 54 65 69 67 64 65 70 74 77 75 67 54 42 35 27 20 21 27 31 32 29 25 23 25 29 28 23 20 22 24 23 16 12
0 0 0 0 0 0 0 0 2 5 6 8 12 17 25 36 48 59 68 70 68 67 71 76 79 77 70 60 51 43 34 29 30 34 37 36 33 30 27 28 32 31 26 23 24 25 23 19 16
0 0 0 0 0 0 0 1 5 7 7 7 9 12 19 30 42 54 66 72 72 71 74 78 80 79 72 63 57 51 43 39 39 38 38 36 33 32 34 35 38 35 28 25 26 25 22 21 21
0 0 0 0 0 0 0 3 7 9 8 7 8 12 18 27 37 49 60 68 70 71 75 79 82 80 73 66 62 57 50 44 41 37 34 32 31 32 37 43 43 38 30 26 25 24 21 21 21
0 0 0 0 0 0 0 3 8 10 10 10 12 16 21 26 34 43 52 58 64 69 75 79 82 80 74 68 64 61 55 49 44 39 33 30 30 32 38 45 43 38 30 24 23 23 22 22 21
0 0 0 0 0 0 0 3 8 12 13 14 16 20 24 27 31 39 46 51 57 65 73 78 81 80 75 69 65 62 60 54 48 42 36 33 33 36 42 46 43 38 32 26 23 24 24 24 23
0 0 0 0 0 0 0 2 7 13 15 16 18 22 26 28 32 38 46 51 55 61 70 77 79 78 74 68 63 62 62 57 50 45 41 39 39 42 45 45 42 39 36 32 30 27 25 26 26
0 1 1 1 0 0 0 2 7 11 14 15 19 24 28 30 33 39 47 54 55 61 69 75 76 75 72 67 63 63 62 56 52 48 46 44 44 46 46 44 41 39 37 37 35 30 26 27 30
Wind_Speed
10 11 9 6 5 1 10 14 14 13 12 11 11 13 15 14 10 11 11 14 15 14 13 13 14 15 15 15 15 14 15 14 14 13 13 14 13 13 13 13 13 12 12 11 11 11 10 10 9
10 11 8 5 3 5 12 12 13 13 10 9 12 14 16 15 15 13 12 14 15 15 12 13 15 15 15 15 14 14 14 14 13 13 12 12 12 12 12 12 11 11 10 10 10 10 9 9 8
11 13 7 3 4 10 13 11 12 11 9 10 13 14 13 11 13 12 13 16 16 15 13 14 16 15 14 14 13 12 13 13 13 12 11 11 11 11 11 10 10 9 9 9 9 9 9 8 7
8 7 6 0 10 13 12 10 11 11 11 10 12 13 13 11 12 14 16 16 17 16 15 14 15 15 14 13 12 12 11 12 11 11 10 10 10 10 9 9 8 8 8 8 8 8 8 7 7
8 5 2 4 12 13 11 11 12 11 11 14 16 15 13 14 17 17 15 15 16 15 15 14 15 15 14 13 12 11 10 10 10 10 9 9 9 9 8 8 7 7 7 7 7 7 7 6 5
5 4 0 6 12 13 11 11 12 13 12 14 16 15 12 13 15 15 15 14 15 16 15 14 15 15 14 13 12 11 10 10 10 10 9 9 8 8 8 7 7 7 6 6 6 6 6 5 5
6 4 2 8 12 12 11 11 11 12 11 10 13 15 13 13 13 13 13 13 14 16 15 13 12 12 13 12 11 11 10 9 9 9 9 8 8 8 8 7 7 7 6 6 6 5 5 5 4
6 4 3 7 11 12 12 12 11 12 10 8 9 12 13 14 14 13 13 12 11 13 14 13 12 11 10 10 11 10 10 9 8 8 9 9 8 8 8 7 7 7 6 6 6 5 5 5 5
6 3 2 7 9 10 10 12 11 12 10 10 12 16 19 18 16 14 13 11 9 10 11 11 11 10 10 10 10 9 9 8 8 7 8 8 6 6 7 7 8 7 6 6 6 6 6 6 6
2 1 5 6 8 8 8 9 9 9 11 14 16 19 19 17 15 15 14 13 11 10 9 8 10 10 8 8 8 6 7 7 6 5 6 4 3 3 5 8 9 8 7 7 7 7 7 6 5
1 3 4 5 6 7 7 7 7 10 11 15 18 19 18 17 15 14 14 13 13 11 9 9 8 8 7 5 6 4 3 5 5 5 5 3 2 3 4 4 5 5 7 5 6 7 5 5 4
2 1 2 3 4 4 6 7 7 10 12 16 18 19 17 16 14 13 14 14 13 12 11 10 9 7 4 4 4 4 3 3 3 4 4 3 2 2 2 2 3 4 3 3 3 3 4 3 3
4 2 1 1 3 4 5 6 8 13 13 17 19 18 17 15 13 12 13 13 13 12 11 10 9 7 5 3 2 4 3 4 4 4 3 3 2 2 2 2 2 2 2 3 2 2 2 2 3
6 4 3 3 3 4 4 7 7 12 14 16 17 16 15 15 15 13 13 12 12 11 10 10 10 8 6 4 3 2 4 3 4 4 5 4 2 2 1 1 1 2 2 2 2 3 2 2 2
9 9 6 6 6 5 4 4 7 13 14 15 16 15 15 14 14 14 13 12 12 10 10 9 9 9 7 6 5 4 4 4 3 4 5 4 3 3 2 2 2 2 2 2 2 3 2 3 3
13 11 8 7 7 6 5 6 9 13 14 14 15 15 14 13 14 14 14 12 11 10 9 9 9 10 8 5 4 3 3 4 3 3 4 4 4 4 3 3 2 2 3 2 2 2 2 2 2
13 11 8 7 8 7 6 6 12 13 13 13 14 15 15 14 14 14 15 13 12 10 9 8 7 9 9 7 5 4 3 3 3 3 4 4 5 5 4 3 2 3 2 2 3 2 2 2 3
10 10 7 7 6 6 6 6 12 12 12 13 14 14 15 15 15 15 15 15 13 11 10 9 7 8 7 6 5 3 3 3 3 3 3 4 4 4 4 3 3 3 2 2 2 2 2 2 3
11 11 10 6 7 8 8 7 10 12 11 12 14 15 15 16 16 16 15 16 15 13 11 10 9 8 6 5 5 4 4 3 3 4 5 5 4 4 3 2 3 3 3 3 3 2 3 3 2
11 11 12 9 8 9 9 9 10 13 13 13 15 15 16 16 16 16 16 16 16 14 12 11 9 10 8 5 4 3 3 3 4 3 4 5 4 4 4 3 2 3 2 3 3 2 2 2 2
13 12 10 9 10 12 11 9 9 12 12 13 13 15 16 16 17 17 16 16 15 14 13 12 10 10 9 7 5 4 3 2 3 3 4 4 5 5 3 4 3 2 2 2 3 3 3 3 2
12 12 9 8 10 10 11 8 9 10 10 11 13 13 14 15 16 17 17 16 16 15 14 11 11 10 9 7 6 7 5 5 4 4 4 5 5 5 4 4 3 2 2 2 4 3 3 3 3
13 11 9 9 11 13 13 11 7 9 10 10 11 13 14 14 15 16 17 16 15 15 15 12 11 10 9 8 7 6 5 4 4 4 4 5 5 5 4 4 3 3 3 3 2 2 3 2 3
13 12 11 11 11 14 14 13 9 8 9 9 8 9 12 13 13 15 15 14 13 14 14 13 11 10 10 9 9 8 7 5 5 4 4 4 4 4 5 4 4 3 3 3 3 2 3 3 3
13 12 9 10 10 12 11 12 7 4 6 7 8 8 9 11 12 13 14 15 13 13 13 13 13 12 11 11 9 8 7 6 5 5 5 5 4 4 5 5 4 4 4 3 3 3 3 4 4
12 14 11 11 11 10 8 9 6 3 4 6 8 9 9 11 12 13 14 13 13 13 13 13 13 12 12 11 9 7 7 6 5 6 5 5 3 3 4 5 5 5 4 4 3 3 4 3 4
14 13 14 13 15 15 11 9 5 2 3 5 7 7 7 8 9 11 12 12 12 12 12 13 13 12 12 11 9 8 7 6 6 5 5 4 3 4 4 5 5 4 4 4 3 3 4 3 3
14 12 10 11 11 13 13 10 3 3 3 2 2 4 4 3 4 7 8 11 11 11 10 11 12 12 11 10 9 8 7 6 5 4 5 4 3 3 3 4 4 4 5 5 4 3 3 4 4
11 13 11 9 10 12 12 7 2 2 0 1 2 1 2 3 2 3 5 7 9 10 10 10 10 10 10 10 8 7 7 7 5 4 5 4 4 4 4 4 4 4 4 4 4 4 4 4 4
12 13 12 10 10 11 12 7 3 1 1 2 1 2 1 2 1 2 3 5 7 9 9 8 8 9 9 7 7 7 6 6 6 6 5 4 4 4 4 4 4 4 4 4 4 4 4 4 4
Wind_Direction
193 209 214 235 242 205 64 64 64 64 66 61 60 67 66 54 64 90 109 111 111 111 112 110 112 112 111 109 108 111 111 111 110 109 109 108 108 109 111 112 111 110 111 112 113 112 112 110 111
214 219 222 239 263 74 67 66 69 70 74 81 74 74 76 73 83 102 112 115 115 114 112 109 114 113 112 110 110 112 113 113 114 113 111 111 111 111 112 112 113 114 115 115 116 116 115 115 116
241 247 251 234 48 65 73 74 81 87 85 85 82 69 66 82 94 108 119 123 117 111 109 111 115 114 113 113 113 113 116 116 116 116 114 115 115 114 114 115 115 117 117 118 120 120 119 120 122
243 234 236 64 68 71 79 87 92 91 84 84 86 79 73 76 99 114 125 124 118 118 117 116 117 115 114 112 114 115 117 120 120 120 120 122 122 120 120 120 119 119 120 119 122 125 126 126 129
235 258 253 69 77 80 79 82 85 80 77 81 87 92 89 93 108 121 126 124 121 120 120 123 121 120 118 116 114 115 118 123 125 127 127 128 127 126 128 128 125 123 125 125 125 129 133 137 144
251 252 346 82 83 83 83 84 90 87 91 100 105 103 101 112 118 124 126 125 125 123 123 128 127 127 126 123 120 123 125 130 133 134 134 132 132 132 133 134 135 133 133 135 137 138 143 149 158
258 294 35 85 87 83 82 79 81 89 89 93 109 110 118 125 125 126 125 125 127 128 128 134 137 137 135 131 129 129 132 134 139 141 143 143 141 140 141 143 145 143 146 148 149 151 156 163 177
261 307 4 76 86 86 87 84 85 93 93 102 116 117 132 134 135 129 125 121 125 129 131 138 142 142 144 139 138 136 137 140 145 151 153 155 153 153 154 155 157 158 162 166 168 165 170 179 195
267 292 30 64 80 89 94 95 95 101 101 87 80 110 130 139 138 134 130 127 126 127 136 143 139 148 154 147 144 149 151 155 157 161 168 172 174 168 172 163 161 165 172 179 180 182 190 193 208
257 57 49 59 81 95 94 104 118 123 113 101 99 113 131 142 146 148 143 142 143 141 139 137 140 150 152 145 148 162 166 165 180 166 175 189 189 170 157 157 167 175 185 191 194 196 200 208 210
323 57 54 61 72 98 110 113 120 127 122 122 127 134 144 150 155 152 150 151 148 149 148 146 144 142 141 142 155 164 157 161 181 165 168 174 183 166 153 160 171 186 195 201 192 200 212 212 207
315 0 44 56 80 96 105 109 100 94 109 126 135 143 151 156 160 157 154 152 148 151 156 151 140 131 137 141 143 154 160 164 161 153 170 166 175 169 153 169 174 187 196 192 198 198 212 214 216
280 267 221 198 127 116 115 109 104 107 118 128 138 150 157 160 162 155 149 147 149 153 156 145 136 134 136 135 172 164 161 167 159 155 171 175 171 160 156 168 182 192 186 183 198 205 206 217 229
287 275 254 235 177 156 147 131 124 124 132 136 147 156 162 161 158 153 152 150 151 152 149 142 143 145 151 167 199 163 170 168 165 163 170 179 163 150 153 166 206 209 204 189 197 210 207 224 235
281 267 248 224 213 167 153 143 140 142 145 150 156 162 162 162 161 161 157 156 153 151 149 148 153 152 161 176 192 178 181 169 173 164 163 170 167 159 183 197 213 201 210 197 200 211 209 221 220
267 258 247 230 217 179 190 183 158 154 159 162 163 164 165 167 167 162 157 156 155 156 154 164 168 157 165 180 197 189 185 162 168 164 163 177 174 178 197 208 209 195 205 204 202 206 211 234 232
260 253 246 230 221 207 213 187 160 170 169 168 169 168 168 171 172 164 163 161 159 158 158 169 165 158 168 178 190 206 184 173 179 172 168 178 186 187 203 205 195 208 218 220 225 177 209 228 236
265 269 256 245 231 234 230 191 161 176 179 173 173 172 173 177 177 169 168 164 162 162 163 170 171 164 170 177 189 205 196 185 187 177 171 171 191 194 211 203 196 207 218 228 222 216 222 236 240
265 280 287 274 261 259 245 209 179 184 190 179 174 176 179 181 177 172 172 168 168 168 169 173 180 170 176 184 188 192 194 198 186 182 176 179 197 196 206 244 192 204 210 220 218 230 236 244 242
262 265 270 269 263 267 263 243 201 189 197 188 180 179 181 180 177 173 176 175 174 172 173 175 180 176 182 182 188 190 192 203 193 193 165 176 191 197 204 213 224 215 209 219 221 219 253 261 236
261 262 268 280 288 276 262 255 227 199 200 190 185 183 182 182 179 174 178 180 176 174 175 180 180 174 182 178 185 199 185 213 203 178 167 187 193 194 209 194 217 224 215 210 222 220 226 249 262
263 269 269 268 272 273 271 263 232 214 202 195 187 183 186 184 178 176 180 183 182 177 178 177 173 174 179 181 191 196 193 200 202 184 175 187 198 197 200 204 209 221 232 208 222 210 233 240 260
266 268 267 261 266 273 267 264 242 219 206 198 194 188 187 181 180 178 181 182 183 180 178 175 171 175 179 188 194 200 205 204 196 189 180 187 191 199 205 200 199 208 231 231 226 208 231 242 248
267 264 258 255 258 258 259 262 247 224 200 190 199 200 188 177 182 179 177 176 183 181 177 173 170 177 181 191 198 201 211 209 206 196 182 192 194 195 205 201 192 206 226 235 230 225 228 240 255
251 252 252 248 240 251 252 256 255 214 194 185 191 204 190 172 180 181 176 176 180 181 178 174 172 178 184 192 201 199 208 210 211 207 201 205 201 196 199 200 188 207 217 225 228 225 236 234 240
255 251 252 265 268 268 252 254 262 238 195 181 181 194 191 178 184 186 180 176 179 181 177 174 174 179 185 192 198 199 201 208 212 213 218 204 209 206 183 185 189 206 218 226 218 230 232 232 235
256 256 263 270 273 275 264 246 238 224 213 195 185 177 177 181 183 180 174 173 176 179 178 177 172 178 187 193 192 195 199 209 213 201 212 219 214 214 188 190 197 205 215 226 222 228 231 228 231
251 261 265 262 265 270 269 261 235 222 234 198 156 140 134 135 173 171 173 175 174 178 178 176 173 177 182 189 192 195 194 202 214 210 210 213 213 217 190 194 201 209 217 222 225 239 231 226 231
241 248 257 271 271 273 277 281 283 152 326 209 159 101 146 149 158 167 176 175 172 175 175 175 169 171 178 186 188 194 190 198 206 212 212 213 212 213 203 203 207 214 217 220 222 234 232 228 235
248 253 252 255 262 270 276 277 314 38 214 271 126 86 79 91 114 144 158 167 170 172 171 170 170 172 175 177 181 188 186 192 203 208 206 205 207 210 203 204 212 220 220 222 222 237 239 234 234